DCSAG CYYT-BIKF

Flight info

Callsign DCSAG
Flight time 3h 34m
Altitude 45000
Route JOOPY DCT 50N050W 55N045W 59N040W 62N030W DCT BAXER DCT BIRNA BIRNA3N
Aircraft E55P/M-SBDFGHJ2RWY/LB2

Departure

Time 2026-04-24 10:28
Airport St. John's International Airport (CYYT)

Arrival

Time 2026-04-24 14:02
Airport Keflavik International Airport (BIKF)
Time Latitude Longitude Altitude Speed Heading
2026-04-24 10:10 47.62273 -52.73692 465 ft 0 kts 86°
2026-04-24 10:24 47.62273 -52.73691 465 ft 0 kts 86°
2026-04-24 10:24 47.62273 -52.73687 465 ft 1 kts 86°
2026-04-24 10:25 47.62282 -52.73673 465 ft 5 kts 12°
2026-04-24 10:25 47.62308 -52.73718 465 ft 6 kts 281°
2026-04-24 10:25 47.62328 -52.73795 465 ft 10 kts 328°
2026-04-24 10:25 47.62403 -52.73806 465 ft 11 kts 357°
2026-04-24 10:26 47.62469 -52.73851 465 ft 11 kts 324°
2026-04-24 10:26 47.62523 -52.73924 465 ft 10 kts 273°
2026-04-24 10:26 47.62514 -52.73993 465 ft 0 kts 264°
2026-04-24 10:27 47.62512 -52.74020 465 ft 11 kts 265°
2026-04-24 10:27 47.62497 -52.74473 465 ft 86 kts 266°
2026-04-24 10:28 47.62422 -52.75710 687 ft 143 kts 262°
2026-04-24 10:28 47.62224 -52.77268 1494 ft 160 kts 259°
2026-04-24 10:28 47.61993 -52.79032 2194 ft 186 kts 261°
2026-04-24 10:28 47.61896 -52.81042 3097 ft 196 kts 271°
2026-04-24 10:29 47.61902 -52.83020 4293 ft 200 kts 271°
2026-04-24 10:29 47.61875 -52.85274 4922 ft 225 kts 269°
2026-04-24 10:29 47.61877 -52.87578 5953 ft 239 kts 278°
2026-04-24 10:29 47.62673 -52.90018 6040 ft 278 kts 321°
2026-04-24 10:30 47.64256 -52.90987 8017 ft 237 kts 356°
2026-04-24 10:30 47.65947 -52.90657 8558 ft 266 kts 25°
2026-04-24 10:30 47.67410 -52.88939 9496 ft 264 kts 49°
2026-04-24 10:30 47.68666 -52.86780 10036 ft 290 kts 51°
2026-04-24 10:31 47.70011 -52.84492 10800 ft 301 kts 49°
2026-04-24 10:31 47.71501 -52.82177 10997 ft 330 kts 46°
2026-04-24 10:31 47.73210 -52.79828 11718 ft 336 kts 43°
2026-04-24 10:31 47.75006 -52.77563 12433 ft 342 kts 41°
2026-04-24 10:32 47.76879 -52.75349 13174 ft 346 kts 39°
2026-04-24 10:32 47.78804 -52.73173 13885 ft 350 kts 38°
2026-04-24 10:32 47.80773 -52.71021 14566 ft 353 kts 38°
2026-04-24 10:32 47.82780 -52.68878 15212 ft 356 kts 37°
2026-04-24 10:33 47.84815 -52.66740 15836 ft 360 kts 37°
2026-04-24 10:33 47.86874 -52.64603 16432 ft 363 kts 37°
2026-04-24 10:33 47.88955 -52.62460 17003 ft 365 kts 37°
2026-04-24 10:33 47.91062 -52.60304 17557 ft 368 kts 37°
2026-04-24 10:34 47.93189 -52.58134 18090 ft 371 kts 37°
2026-04-24 10:34 47.95329 -52.55957 18579 ft 374 kts 37°
2026-04-24 10:34 47.97490 -52.53762 19043 ft 377 kts 37°
2026-04-24 10:34 47.99671 -52.51547 19485 ft 380 kts 37°
2026-04-24 10:35 48.01871 -52.49314 19964 ft 382 kts 37°
2026-04-24 10:35 48.04050 -52.47103 20367 ft 385 kts 37°
2026-04-24 10:35 48.06276 -52.44842 20760 ft 388 kts 37°
2026-04-24 10:35 48.08517 -52.42560 21142 ft 391 kts 37°
2026-04-24 10:36 48.10770 -52.40258 21500 ft 394 kts 37°
2026-04-24 10:36 48.13043 -52.37941 21859 ft 396 kts 37°
2026-04-24 10:36 48.15334 -52.35609 22207 ft 399 kts 37°
2026-04-24 10:36 48.17638 -52.33264 22535 ft 401 kts 37°
2026-04-24 10:37 48.19959 -52.30898 22850 ft 404 kts 37°
2026-04-24 10:37 48.22288 -52.28522 23161 ft 407 kts 37°
2026-04-24 10:37 48.24638 -52.26122 23477 ft 409 kts 37°
2026-04-24 10:37 48.26995 -52.23712 23761 ft 411 kts 37°
2026-04-24 10:38 48.28563 -52.22106 23951 ft 413 kts 37°
2026-04-24 10:38 48.30944 -52.19665 24243 ft 414 kts 37°
2026-04-24 10:38 48.33323 -52.17224 24587 ft 414 kts 37°
2026-04-24 10:38 48.35706 -52.14775 24917 ft 414 kts 37°
2026-04-24 10:39 48.38086 -52.12328 25224 ft 415 kts 37°
2026-04-24 10:39 48.40463 -52.09879 25547 ft 414 kts 38°
2026-04-24 10:39 48.42846 -52.07420 25836 ft 414 kts 38°
2026-04-24 10:39 48.45222 -52.04964 26124 ft 414 kts 38°
2026-04-24 10:40 48.47585 -52.02469 26417 ft 413 kts 39°
2026-04-24 10:40 48.49849 -51.99892 26687 ft 412 kts 41°
2026-04-24 10:40 48.52125 -51.97165 26930 ft 413 kts 43°
2026-04-24 10:40 48.54312 -51.94464 27173 ft 412 kts 43°
2026-04-24 10:41 48.56520 -51.91687 27417 ft 412 kts 44°
2026-04-24 10:41 48.58719 -51.88892 27657 ft 412 kts 44°
2026-04-24 10:41 48.60911 -51.86084 27881 ft 412 kts 44°
2026-04-24 10:41 48.63097 -51.83275 28096 ft 412 kts 44°
2026-04-24 10:42 48.65278 -51.80462 28308 ft 412 kts 44°
2026-04-24 10:42 48.67430 -51.77684 28504 ft 412 kts 45°
2026-04-24 10:42 48.69615 -51.74858 28691 ft 412 kts 45°
2026-04-24 10:42 48.71796 -51.72033 28871 ft 412 kts 45°
2026-04-24 10:43 48.73974 -51.69209 29050 ft 412 kts 45°
2026-04-24 10:43 48.76167 -51.66363 29219 ft 413 kts 45°
2026-04-24 10:43 48.78344 -51.63534 29374 ft 413 kts 45°
2026-04-24 10:43 48.80526 -51.60697 29536 ft 413 kts 45°
2026-04-24 10:44 48.82708 -51.57855 29692 ft 413 kts 45°
2026-04-24 10:44 48.84887 -51.55016 29936 ft 410 kts 45°
2026-04-24 10:44 48.87016 -51.52248 30514 ft 400 kts 45°
2026-04-24 10:45 48.91276 -51.46684 30713 ft 404 kts 45°
2026-04-24 10:45 48.93407 -51.43892 30842 ft 405 kts 45°
2026-04-24 10:45 48.95525 -51.41112 30950 ft 407 kts 45°
2026-04-24 10:45 48.97671 -51.38292 31076 ft 408 kts 45°
2026-04-24 10:46 48.99827 -51.35458 31199 ft 409 kts 45°
2026-04-24 10:46 49.01986 -51.32617 31320 ft 410 kts 45°
2026-04-24 10:46 49.04146 -51.29770 31423 ft 411 kts 46°
2026-04-24 10:46 49.06317 -51.26907 31556 ft 412 kts 45°
2026-04-24 10:47 49.08489 -51.24040 31666 ft 413 kts 46°
2026-04-24 10:47 49.10662 -51.21168 31767 ft 414 kts 45°
2026-04-24 10:47 49.12841 -51.18285 31878 ft 415 kts 46°
2026-04-24 10:47 49.14999 -51.15426 31979 ft 416 kts 46°
2026-04-24 10:48 49.17187 -51.12524 32082 ft 417 kts 46°
2026-04-24 10:48 49.19382 -51.09610 32185 ft 417 kts 45°
2026-04-24 10:48 49.21583 -51.06684 32290 ft 418 kts 46°
2026-04-24 10:48 49.23749 -51.03810 32876 ft 406 kts 45°
2026-04-24 10:49 49.25886 -51.00972 32965 ft 408 kts 46°
2026-04-24 10:49 49.28032 -50.98111 33066 ft 409 kts 46°
2026-04-24 10:49 49.30180 -50.95241 33177 ft 410 kts 46°
2026-04-24 10:49 49.32328 -50.92366 33282 ft 411 kts 46°
2026-04-24 10:50 49.34483 -50.89478 33403 ft 411 kts 46°
2026-04-24 10:50 49.36644 -50.86579 33508 ft 412 kts 46°
2026-04-24 10:50 49.38809 -50.83671 33593 ft 413 kts 46°
2026-04-24 10:50 49.40973 -50.80761 33698 ft 414 kts 46°
2026-04-24 10:51 49.43111 -50.77883 33803 ft 415 kts 46°
2026-04-24 10:51 49.47459 -50.72021 34004 ft 416 kts 46°
2026-04-24 10:52 49.51821 -50.66126 34199 ft 417 kts 46°
2026-04-24 10:52 49.56193 -50.60203 34384 ft 419 kts 46°
2026-04-24 10:53 49.60570 -50.54260 34560 ft 420 kts 46°
2026-04-24 10:53 49.64960 -50.48284 34746 ft 421 kts 46°
2026-04-24 10:54 49.69355 -50.42284 34907 ft 422 kts 46°
2026-04-24 10:54 49.71521 -50.39330 35508 ft 409 kts 46°
2026-04-24 10:54 49.73654 -50.36418 35589 ft 410 kts 46°
2026-04-24 10:55 49.77934 -50.30546 35763 ft 412 kts 46°
2026-04-24 10:55 49.82202 -50.24673 35936 ft 414 kts 46°
2026-04-24 10:56 49.86502 -50.18738 36117 ft 415 kts 46°
2026-04-24 10:56 49.90825 -50.12756 36289 ft 416 kts 46°
2026-04-24 10:57 49.95158 -50.06745 36436 ft 418 kts 46°
2026-04-24 10:57 49.99643 -50.01006 36586 ft 423 kts 39°
2026-04-24 10:58 50.04609 -49.96020 36732 ft 426 kts 35°
2026-04-24 10:58 50.09750 -49.91343 36868 ft 429 kts 34°
2026-04-24 10:59 50.14953 -49.86749 37004 ft 430 kts 33°
2026-04-24 10:59 50.20175 -49.82166 37141 ft 431 kts 33°
2026-04-24 11:00 50.25418 -49.77557 37269 ft 432 kts 33°
2026-04-24 11:00 50.28028 -49.75257 37411 ft 430 kts 33°
2026-04-24 11:00 50.30560 -49.73028 37959 ft 418 kts 33°
2026-04-24 11:01 50.35657 -49.68518 38066 ft 421 kts 33°
2026-04-24 11:01 50.40763 -49.63976 38218 ft 422 kts 33°
2026-04-24 11:02 50.45890 -49.59398 38357 ft 424 kts 33°
2026-04-24 11:02 50.51015 -49.54808 38490 ft 425 kts 33°
2026-04-24 11:03 50.56160 -49.50187 38628 ft 426 kts 33°
2026-04-24 11:03 50.61322 -49.45538 38764 ft 427 kts 33°
2026-04-24 11:04 50.66492 -49.40870 38897 ft 429 kts 33°
2026-04-24 11:04 50.71676 -49.36177 39020 ft 430 kts 33°
2026-04-24 11:05 50.76836 -49.31493 39143 ft 431 kts 33°
2026-04-24 11:05 50.82047 -49.26774 39267 ft 432 kts 33°
2026-04-24 11:06 50.87259 -49.22023 39372 ft 433 kts 33°
2026-04-24 11:06 50.92479 -49.17242 39486 ft 433 kts 33°
2026-04-24 11:07 51.00331 -49.10026 39638 ft 435 kts 33°
2026-04-24 11:07 51.05556 -49.05210 39730 ft 436 kts 33°
2026-04-24 11:08 51.10801 -49.00363 39811 ft 436 kts 33°
2026-04-24 11:08 51.16052 -48.95499 39970 ft 434 kts 33°
2026-04-24 11:09 51.18622 -48.93119 40559 ft 422 kts 32°
2026-04-24 11:09 51.21164 -48.90760 40582 ft 423 kts 32°
2026-04-24 11:09 51.26239 -48.86036 40695 ft 424 kts 33°
2026-04-24 11:10 51.31352 -48.81261 40807 ft 426 kts 32°
2026-04-24 11:10 51.36471 -48.76468 40913 ft 427 kts 32°
2026-04-24 11:11 51.41609 -48.71645 41036 ft 427 kts 32°
2026-04-24 11:11 51.46750 -48.66809 41135 ft 428 kts 32°
2026-04-24 11:12 51.51857 -48.61992 41235 ft 429 kts 32°
2026-04-24 11:12 51.57014 -48.57116 41338 ft 430 kts 32°
2026-04-24 11:13 51.62178 -48.52220 41437 ft 430 kts 32°
2026-04-24 11:13 51.67343 -48.47310 41522 ft 431 kts 32°
2026-04-24 11:14 51.72479 -48.42414 41613 ft 432 kts 32°
2026-04-24 11:14 51.77667 -48.37456 41693 ft 433 kts 32°
2026-04-24 11:15 51.82844 -48.32495 41769 ft 433 kts 33°
2026-04-24 11:15 51.88042 -48.27501 41841 ft 434 kts 32°
2026-04-24 11:16 51.93238 -48.22494 41907 ft 434 kts 32°
2026-04-24 11:16 51.95809 -48.20014 42358 ft 422 kts 32°
2026-04-24 11:16 51.98321 -48.17589 42615 ft 419 kts 32°
2026-04-24 11:17 52.03344 -48.12725 42669 ft 421 kts 32°
2026-04-24 11:17 52.08371 -48.07840 42768 ft 421 kts 32°
2026-04-24 11:18 52.13399 -48.02941 42849 ft 422 kts 33°
2026-04-24 11:18 52.18443 -47.98015 42932 ft 423 kts 33°
2026-04-24 11:19 52.22640 -47.93905 43008 ft 423 kts 33°
2026-04-24 11:19 52.27696 -47.88943 43088 ft 424 kts 32°
2026-04-24 11:20 52.32756 -47.83964 43177 ft 424 kts 33°
2026-04-24 11:20 52.37821 -47.78967 43261 ft 425 kts 33°
2026-04-24 11:21 52.42885 -47.73958 43339 ft 425 kts 33°
2026-04-24 11:21 52.47955 -47.68929 43417 ft 426 kts 33°
2026-04-24 11:22 52.53032 -47.63879 43498 ft 426 kts 33°
2026-04-24 11:22 52.58075 -47.58849 43575 ft 426 kts 33°
2026-04-24 11:23 52.63150 -47.53774 43653 ft 427 kts 33°
2026-04-24 11:23 52.68237 -47.48672 43730 ft 427 kts 33°
2026-04-24 11:24 52.73286 -47.43596 43801 ft 427 kts 33°
2026-04-24 11:24 52.78396 -47.38443 43866 ft 427 kts 33°
2026-04-24 11:25 52.83445 -47.33338 43939 ft 427 kts 33°
2026-04-24 11:25 52.88515 -47.28197 44000 ft 427 kts 33°
2026-04-24 11:26 52.91020 -47.25654 44537 ft 414 kts 33°
2026-04-24 11:26 52.93481 -47.23153 44598 ft 413 kts 33°
2026-04-24 11:26 52.95924 -47.20665 44776 ft 410 kts 33°
2026-04-24 11:26 52.98322 -47.18219 44910 ft 408 kts 33°
2026-04-24 11:27 53.03156 -47.13277 44998 ft 407 kts 33°
2026-04-24 11:27 53.07994 -47.08315 45003 ft 408 kts 33°
2026-04-24 11:28 53.12830 -47.03342 45006 ft 409 kts 33°
2026-04-24 11:28 53.17668 -46.98354 45008 ft 409 kts 34°
2026-04-24 11:29 53.22486 -46.93374 45010 ft 410 kts 34°
2026-04-24 11:29 53.27335 -46.88349 45012 ft 410 kts 34°
2026-04-24 11:30 53.32201 -46.83294 45015 ft 411 kts 34°
2026-04-24 11:30 53.37061 -46.78231 45017 ft 411 kts 34°
2026-04-24 11:31 53.41926 -46.73149 45019 ft 412 kts 34°
2026-04-24 11:31 53.46791 -46.68054 45021 ft 412 kts 34°
2026-04-24 11:32 53.51637 -46.62964 45024 ft 413 kts 34°
2026-04-24 11:32 53.56506 -46.57837 45026 ft 413 kts 34°
2026-04-24 11:33 53.61377 -46.52693 45028 ft 413 kts 34°
2026-04-24 11:33 53.66248 -46.47535 45030 ft 414 kts 34°
2026-04-24 11:34 53.71128 -46.42353 45033 ft 414 kts 34°
2026-04-24 11:34 53.76009 -46.37155 45035 ft 414 kts 34°
2026-04-24 11:35 53.80891 -46.31942 45037 ft 415 kts 34°
2026-04-24 11:35 53.85767 -46.26721 45040 ft 415 kts 34°
2026-04-24 11:36 53.90654 -46.21474 45042 ft 415 kts 34°
2026-04-24 11:36 53.95537 -46.16215 45044 ft 415 kts 34°
2026-04-24 11:37 54.00390 -46.10975 45047 ft 415 kts 34°
2026-04-24 11:37 54.05274 -46.05686 45049 ft 416 kts 34°
2026-04-24 11:38 54.10155 -46.00385 45051 ft 416 kts 35°
2026-04-24 11:38 54.15037 -45.95068 45054 ft 416 kts 35°
2026-04-24 11:39 54.19884 -45.89775 45056 ft 416 kts 35°
2026-04-24 11:39 54.24763 -45.84431 45075 ft 416 kts 35°
2026-04-24 11:40 54.29639 -45.79075 45083 ft 416 kts 35°
2026-04-24 11:40 54.34518 -45.73701 45087 ft 416 kts 35°
2026-04-24 11:41 54.39385 -45.68324 45091 ft 416 kts 35°
2026-04-24 11:41 54.44233 -45.62953 45094 ft 416 kts 35°
2026-04-24 11:42 54.49102 -45.57543 45097 ft 417 kts 35°
2026-04-24 11:42 54.53966 -45.52123 45101 ft 417 kts 35°
2026-04-24 11:43 54.58831 -45.46685 45104 ft 417 kts 35°
2026-04-24 11:43 54.63705 -45.41222 45107 ft 417 kts 35°
2026-04-24 11:44 54.68573 -45.35750 45133 ft 417 kts 35°
2026-04-24 11:44 54.73441 -45.30261 45142 ft 417 kts 36°
2026-04-24 11:45 54.78266 -45.24806 45146 ft 417 kts 36°
2026-04-24 11:45 54.83121 -45.19298 45149 ft 417 kts 36°
2026-04-24 11:46 54.87982 -45.13767 45153 ft 417 kts 36°
2026-04-24 11:46 54.92833 -45.08230 45156 ft 417 kts 36°
2026-04-24 11:47 54.97673 -45.02698 45160 ft 418 kts 35°
2026-04-24 11:47 55.02572 -44.97227 45163 ft 418 kts 35°
2026-04-24 11:48 55.07497 -44.91788 45166 ft 418 kts 34°
2026-04-24 11:48 55.12412 -44.86366 45170 ft 418 kts 34°
2026-04-24 11:49 55.17336 -44.80924 45173 ft 418 kts 34°
2026-04-24 11:49 55.22236 -44.75492 45176 ft 419 kts 34°
2026-04-24 11:50 55.27156 -44.70021 45179 ft 419 kts 35°
2026-04-24 11:50 55.32068 -44.64540 45183 ft 419 kts 35°
2026-04-24 11:51 55.36998 -44.59023 45186 ft 419 kts 35°
2026-04-24 11:51 55.41916 -44.53502 45189 ft 419 kts 35°
2026-04-24 11:52 55.46834 -44.47963 45192 ft 419 kts 35°
2026-04-24 11:52 55.51728 -44.42435 45195 ft 419 kts 35°
2026-04-24 11:53 55.56638 -44.36871 45198 ft 419 kts 35°
2026-04-24 11:53 55.61548 -44.31291 45201 ft 419 kts 35°
2026-04-24 11:54 55.66462 -44.25689 45204 ft 420 kts 35°
2026-04-24 11:54 55.71345 -44.20105 45207 ft 420 kts 35°
2026-04-24 11:55 55.76261 -44.14467 45209 ft 420 kts 36°
2026-04-24 11:55 55.81167 -44.08823 45212 ft 420 kts 36°
2026-04-24 11:56 55.86044 -44.03195 45215 ft 420 kts 36°
2026-04-24 11:56 55.90944 -43.97523 45218 ft 420 kts 36°
2026-04-24 11:57 55.95851 -43.91826 45223 ft 420 kts 36°
2026-04-24 11:57 56.00746 -43.86126 45228 ft 420 kts 36°
2026-04-24 11:58 56.05639 -43.80409 45230 ft 420 kts 36°
2026-04-24 11:58 56.10535 -43.74672 45233 ft 420 kts 36°
2026-04-24 11:59 56.15429 -43.68920 45235 ft 420 kts 36°
2026-04-24 11:59 56.20288 -43.63191 45238 ft 420 kts 36°
2026-04-24 12:00 56.24380 -43.58352 45240 ft 420 kts 36°
2026-04-24 12:00 56.29267 -43.52557 45242 ft 420 kts 36°
2026-04-24 12:01 56.34153 -43.46745 45245 ft 420 kts 36°
2026-04-24 12:01 56.39035 -43.40919 45247 ft 421 kts 36°
2026-04-24 12:02 56.43919 -43.35074 45249 ft 421 kts 36°
2026-04-24 12:02 56.48798 -43.29216 45251 ft 421 kts 36°
2026-04-24 12:03 56.53672 -43.23346 45253 ft 421 kts 36°
2026-04-24 12:03 56.58518 -43.17490 45256 ft 421 kts 36°
2026-04-24 12:04 56.63394 -43.11581 45258 ft 421 kts 36°
2026-04-24 12:04 56.68260 -43.05663 45260 ft 421 kts 36°
2026-04-24 12:05 56.73126 -42.99728 45262 ft 421 kts 36°
2026-04-24 12:05 56.77958 -42.93816 45264 ft 421 kts 36°
2026-04-24 12:06 56.82817 -42.87852 45266 ft 421 kts 36°
2026-04-24 12:06 56.87674 -42.81870 45267 ft 421 kts 36°
2026-04-24 12:07 56.92526 -42.75878 45269 ft 421 kts 36°
2026-04-24 12:07 56.97380 -42.69862 45271 ft 421 kts 36°
2026-04-24 12:08 57.02204 -42.63864 45273 ft 421 kts 36°
2026-04-24 12:08 57.07042 -42.57830 45275 ft 421 kts 36°
2026-04-24 12:09 57.11887 -42.51768 45276 ft 421 kts 37°
2026-04-24 12:09 57.16736 -42.45681 45278 ft 421 kts 37°
2026-04-24 12:10 57.21573 -42.39590 45280 ft 421 kts 37°
2026-04-24 12:11 57.28822 -42.30423 45282 ft 421 kts 37°
2026-04-24 12:11 57.33632 -42.24317 45284 ft 421 kts 37°
2026-04-24 12:12 57.38456 -42.18173 45285 ft 421 kts 37°
2026-04-24 12:12 57.43277 -42.12013 45287 ft 420 kts 37°
2026-04-24 12:13 57.48073 -42.05864 45288 ft 420 kts 37°
2026-04-24 12:13 57.52886 -41.99674 45289 ft 420 kts 37°
2026-04-24 12:14 57.57692 -41.93473 45291 ft 420 kts 37°
2026-04-24 12:14 57.62498 -41.87251 45292 ft 420 kts 37°
2026-04-24 12:15 57.67302 -41.81010 45294 ft 420 kts 37°
2026-04-24 12:15 57.72109 -41.74747 45295 ft 420 kts 37°
2026-04-24 12:16 57.76896 -41.68487 45296 ft 420 kts 37°
2026-04-24 12:16 57.81690 -41.62199 45297 ft 420 kts 37°
2026-04-24 12:17 57.86485 -41.55888 45299 ft 420 kts 37°
2026-04-24 12:17 57.91238 -41.49611 45300 ft 420 kts 37°
2026-04-24 12:18 57.96047 -41.43239 45301 ft 420 kts 37°
2026-04-24 12:18 58.00790 -41.36934 45302 ft 420 kts 37°
2026-04-24 12:19 58.05562 -41.30569 45303 ft 420 kts 37°
2026-04-24 12:19 58.10336 -41.24181 45304 ft 420 kts 38°
2026-04-24 12:20 58.15097 -41.17788 45306 ft 420 kts 38°
2026-04-24 12:20 58.19859 -41.11373 45307 ft 420 kts 38°
2026-04-24 12:21 58.24614 -41.04946 45308 ft 419 kts 38°
2026-04-24 12:21 58.29367 -40.98499 45309 ft 419 kts 38°
2026-04-24 12:22 58.34087 -40.92075 45310 ft 419 kts 38°
2026-04-24 12:22 58.38836 -40.85590 45311 ft 419 kts 38°
2026-04-24 12:23 58.43571 -40.79102 45312 ft 419 kts 38°
2026-04-24 12:23 58.48307 -40.72591 45313 ft 419 kts 38°
2026-04-24 12:24 58.53041 -40.66060 45314 ft 419 kts 38°
2026-04-24 12:24 58.57740 -40.59556 45315 ft 419 kts 38°
2026-04-24 12:25 58.62459 -40.53001 45315 ft 419 kts 38°
2026-04-24 12:25 58.67183 -40.46416 45316 ft 419 kts 38°
2026-04-24 12:26 58.71902 -40.39817 45317 ft 419 kts 38°
2026-04-24 12:26 58.76615 -40.33201 45318 ft 419 kts 38°
2026-04-24 12:27 58.81333 -40.26556 45319 ft 419 kts 38°
2026-04-24 12:27 58.86038 -40.19906 45320 ft 419 kts 38°
2026-04-24 12:28 58.90743 -40.13230 45321 ft 419 kts 39°
2026-04-24 12:28 58.95416 -40.06574 45322 ft 419 kts 39°
2026-04-24 12:29 58.99793 -39.99177 45323 ft 416 kts 49°
2026-04-24 12:29 59.03487 -39.90556 45324 ft 414 kts 54°
2026-04-24 12:30 59.06918 -39.81557 45325 ft 414 kts 56°
2026-04-24 12:30 59.10268 -39.72424 45325 ft 414 kts 57°
2026-04-24 12:31 59.13585 -39.63264 45326 ft 414 kts 57°
2026-04-24 12:31 59.16900 -39.54068 45327 ft 414 kts 57°
2026-04-24 12:32 59.20191 -39.44913 45328 ft 414 kts 57°
2026-04-24 12:32 59.23496 -39.35698 45328 ft 415 kts 57°
2026-04-24 12:33 59.26808 -39.26435 45329 ft 415 kts 57°
2026-04-24 12:33 59.30111 -39.17174 45330 ft 415 kts 57°
2026-04-24 12:34 59.33409 -39.07893 45331 ft 415 kts 57°
2026-04-24 12:34 59.36675 -38.98671 45332 ft 415 kts 57°
2026-04-24 12:35 59.39968 -38.89339 45333 ft 415 kts 57°
2026-04-24 12:35 59.43249 -38.80006 45334 ft 415 kts 57°
2026-04-24 12:36 59.46525 -38.70648 45335 ft 415 kts 57°
2026-04-24 12:36 59.49797 -38.61268 45335 ft 416 kts 57°
2026-04-24 12:37 59.53065 -38.51860 45337 ft 416 kts 57°
2026-04-24 12:37 59.56331 -38.42423 45337 ft 416 kts 57°
2026-04-24 12:38 59.59567 -38.33035 45339 ft 416 kts 58°
2026-04-24 12:38 59.62816 -38.23571 45339 ft 416 kts 58°
2026-04-24 12:39 59.68760 -38.06157 45341 ft 417 kts 58°
2026-04-24 12:40 59.71994 -37.96626 45342 ft 417 kts 58°
2026-04-24 12:40 59.75225 -37.87070 45344 ft 417 kts 58°
2026-04-24 12:41 59.78447 -37.77499 45345 ft 417 kts 58°
2026-04-24 12:41 59.81670 -37.67885 45346 ft 417 kts 58°
2026-04-24 12:42 59.84881 -37.58267 45347 ft 417 kts 58°
2026-04-24 12:42 59.88086 -37.48628 45348 ft 417 kts 58°
2026-04-24 12:43 59.91266 -37.39027 45349 ft 417 kts 58°
2026-04-24 12:43 59.94454 -37.29358 45350 ft 417 kts 58°
2026-04-24 12:44 59.97639 -37.19659 45352 ft 417 kts 59°
2026-04-24 12:44 60.00814 -37.09952 45354 ft 418 kts 59°
2026-04-24 12:45 60.03985 -37.00217 45399 ft 417 kts 59°
2026-04-24 12:45 60.07141 -36.90485 45410 ft 417 kts 59°
2026-04-24 12:46 60.10292 -36.80727 45412 ft 417 kts 59°
2026-04-24 12:46 60.13445 -36.70923 45414 ft 417 kts 59°
2026-04-24 12:47 60.16586 -36.61117 45415 ft 417 kts 59°
2026-04-24 12:47 60.19701 -36.51348 45416 ft 418 kts 59°
2026-04-24 12:48 60.22833 -36.41485 45417 ft 418 kts 59°
2026-04-24 12:48 60.25954 -36.31617 45419 ft 418 kts 59°
2026-04-24 12:49 60.29072 -36.21714 45420 ft 418 kts 59°
2026-04-24 12:49 60.32184 -36.11788 45421 ft 418 kts 59°
2026-04-24 12:50 60.35288 -36.01847 45422 ft 418 kts 59°
2026-04-24 12:50 60.38387 -35.91878 45423 ft 419 kts 60°
2026-04-24 12:51 60.41481 -35.81884 45424 ft 419 kts 60°
2026-04-24 12:51 60.44569 -35.71862 45425 ft 419 kts 60°
2026-04-24 12:52 60.47631 -35.61883 45426 ft 419 kts 60°
2026-04-24 12:52 60.50723 -35.51764 45427 ft 419 kts 60°
2026-04-24 12:53 60.53768 -35.41753 45428 ft 419 kts 60°
2026-04-24 12:53 60.56827 -35.31652 45429 ft 419 kts 60°
2026-04-24 12:54 60.59874 -35.21549 45430 ft 419 kts 60°
2026-04-24 12:54 60.62919 -35.11405 45431 ft 419 kts 60°
2026-04-24 12:55 60.65950 -35.01266 45432 ft 419 kts 60°
2026-04-24 12:55 60.68978 -34.91089 45433 ft 419 kts 60°
2026-04-24 12:56 60.71999 -34.80892 45434 ft 419 kts 61°
2026-04-24 12:56 60.75010 -34.70684 45435 ft 419 kts 61°
2026-04-24 12:57 60.78013 -34.60455 45435 ft 419 kts 61°
2026-04-24 12:57 60.81008 -34.50209 45436 ft 419 kts 61°
2026-04-24 12:58 60.84000 -34.39930 45437 ft 419 kts 61°
2026-04-24 12:58 60.86979 -34.29647 45438 ft 419 kts 61°
2026-04-24 12:59 60.89951 -34.19341 45438 ft 419 kts 61°
2026-04-24 12:59 60.92895 -34.09087 45439 ft 419 kts 61°
2026-04-24 13:00 60.95854 -33.98735 45440 ft 419 kts 61°
2026-04-24 13:00 60.98802 -33.88373 45440 ft 419 kts 61°
2026-04-24 13:01 61.01740 -33.77997 45441 ft 419 kts 62°
2026-04-24 13:01 61.04680 -33.67570 45441 ft 419 kts 62°
2026-04-24 13:02 61.07569 -33.57275 45442 ft 419 kts 62°
2026-04-24 13:02 61.10523 -33.46700 45442 ft 419 kts 62°
2026-04-24 13:03 61.13422 -33.36273 45443 ft 420 kts 62°
2026-04-24 13:03 61.16331 -33.25764 45443 ft 420 kts 62°
2026-04-24 13:04 61.19210 -33.15316 45444 ft 420 kts 62°
2026-04-24 13:04 61.22101 -33.04770 45444 ft 420 kts 62°
2026-04-24 13:05 61.24985 -32.94206 45445 ft 420 kts 62°
2026-04-24 13:05 61.27860 -32.83621 45445 ft 420 kts 62°
2026-04-24 13:06 61.30710 -32.73084 45445 ft 420 kts 62°
2026-04-24 13:06 61.33570 -32.62454 45446 ft 420 kts 62°
2026-04-24 13:07 61.36427 -32.51790 45446 ft 420 kts 62°
2026-04-24 13:07 61.39251 -32.41196 45446 ft 420 kts 62°
2026-04-24 13:08 61.42083 -32.30522 45447 ft 421 kts 63°
2026-04-24 13:08 61.44915 -32.19798 45447 ft 421 kts 63°
2026-04-24 13:09 61.49143 -32.03688 45447 ft 421 kts 63°
2026-04-24 13:09 61.51947 -31.92941 45447 ft 421 kts 63°
2026-04-24 13:10 61.54735 -31.82203 45448 ft 421 kts 63°
2026-04-24 13:10 61.57529 -31.71389 45448 ft 421 kts 63°
2026-04-24 13:11 61.60312 -31.60566 45448 ft 421 kts 63°
2026-04-24 13:11 61.63088 -31.49718 45448 ft 421 kts 63°
2026-04-24 13:12 61.65856 -31.38847 45456 ft 421 kts 63°
2026-04-24 13:12 61.68614 -31.27958 45461 ft 421 kts 63°
2026-04-24 13:13 61.71366 -31.17045 45461 ft 421 kts 63°
2026-04-24 13:13 61.74117 -31.06077 45467 ft 421 kts 63°
2026-04-24 13:14 61.76830 -30.95207 45473 ft 421 kts 64°
2026-04-24 13:14 61.79555 -30.84238 45474 ft 421 kts 63°
2026-04-24 13:15 61.82271 -30.73245 45473 ft 422 kts 64°
2026-04-24 13:15 61.84985 -30.62204 45471 ft 422 kts 64°
2026-04-24 13:16 61.87690 -30.51144 45471 ft 422 kts 64°
2026-04-24 13:16 61.90380 -30.40090 45472 ft 422 kts 64°
2026-04-24 13:17 61.93070 -30.28976 45473 ft 422 kts 64°
2026-04-24 13:17 61.95735 -30.17904 45473 ft 422 kts 64°
2026-04-24 13:18 61.98394 -30.06750 45473 ft 422 kts 65°
2026-04-24 13:18 62.00841 -29.95392 45473 ft 422 kts 68°
2026-04-24 13:19 62.03135 -29.83890 45472 ft 422 kts 68°
2026-04-24 13:19 62.05003 -29.74236 45472 ft 422 kts 69°
2026-04-24 13:20 62.07223 -29.62597 45472 ft 422 kts 69°
2026-04-24 13:20 62.09415 -29.51004 45472 ft 423 kts 69°
2026-04-24 13:21 62.11608 -29.39337 45471 ft 423 kts 69°
2026-04-24 13:21 62.13797 -29.27618 45463 ft 423 kts 69°
2026-04-24 13:22 62.15967 -29.15939 45461 ft 423 kts 69°
2026-04-24 13:22 62.18137 -29.04191 45461 ft 424 kts 69°
2026-04-24 13:23 62.20296 -28.92438 45462 ft 424 kts 69°
2026-04-24 13:23 62.22444 -28.80671 45462 ft 424 kts 69°
2026-04-24 13:24 62.24585 -28.68877 45462 ft 424 kts 69°
2026-04-24 13:24 62.26716 -28.57062 45462 ft 424 kts 70°
2026-04-24 13:25 62.28839 -28.45222 45462 ft 424 kts 70°
2026-04-24 13:25 62.30955 -28.33349 45462 ft 425 kts 70°
2026-04-24 13:26 62.33056 -28.21484 45462 ft 424 kts 70°
2026-04-24 13:26 62.35148 -28.09601 45462 ft 424 kts 70°
2026-04-24 13:27 62.37228 -27.97705 45462 ft 424 kts 70°
2026-04-24 13:27 62.39292 -27.85828 45462 ft 424 kts 70°
2026-04-24 13:28 62.41354 -27.73892 45463 ft 424 kts 70°
2026-04-24 13:28 62.43405 -27.61936 45463 ft 425 kts 70°
2026-04-24 13:29 62.45449 -27.49950 45463 ft 425 kts 70°
2026-04-24 13:29 62.47480 -27.37963 45463 ft 425 kts 70°
2026-04-24 13:30 62.49501 -27.25953 45447 ft 426 kts 70°
2026-04-24 13:30 62.50527 -27.19834 45063 ft 426 kts 71°
2026-04-24 13:30 62.51521 -27.13880 44630 ft 425 kts 71°
2026-04-24 13:31 62.52522 -27.07865 44183 ft 424 kts 71°
2026-04-24 13:31 62.53521 -27.01846 43733 ft 424 kts 71°
2026-04-24 13:31 62.54513 -26.95843 43283 ft 423 kts 71°
2026-04-24 13:31 62.55501 -26.89846 42833 ft 421 kts 71°
2026-04-24 13:32 62.56482 -26.83877 42384 ft 420 kts 71°
2026-04-24 13:32 62.57457 -26.77918 41934 ft 418 kts 71°
2026-04-24 13:32 62.58425 -26.71985 41484 ft 416 kts 71°
2026-04-24 13:32 62.59386 -26.66070 41033 ft 414 kts 71°
2026-04-24 13:33 62.60337 -26.60202 40584 ft 412 kts 71°
2026-04-24 13:33 62.61283 -26.54349 40134 ft 409 kts 71°
2026-04-24 13:33 62.62219 -26.48534 39684 ft 407 kts 71°
2026-04-24 13:33 62.63149 -26.42735 39233 ft 404 kts 71°
2026-04-24 13:34 62.64069 -26.36978 38782 ft 401 kts 71°
2026-04-24 13:34 62.64967 -26.31343 38340 ft 398 kts 71°
2026-04-24 13:34 62.65865 -26.25674 37881 ft 396 kts 71°
2026-04-24 13:34 62.66757 -26.20033 37430 ft 392 kts 71°
2026-04-24 13:35 62.67640 -26.14438 36979 ft 389 kts 71°
2026-04-24 13:35 62.68539 -26.08897 36528 ft 386 kts 68°
2026-04-24 13:35 62.69730 -26.03687 36079 ft 383 kts 61°
2026-04-24 13:35 62.71162 -25.98813 35621 ft 381 kts 57°
2026-04-24 13:36 62.72716 -25.94163 35164 ft 378 kts 54°
2026-04-24 13:36 62.74333 -25.89655 34712 ft 375 kts 53°
2026-04-24 13:36 62.75972 -25.85259 34262 ft 372 kts 53°
2026-04-24 13:36 62.77620 -25.80924 33811 ft 369 kts 52°
2026-04-24 13:37 62.79262 -25.76641 33360 ft 366 kts 52°
2026-04-24 13:37 62.80899 -25.72388 32909 ft 364 kts 52°
2026-04-24 13:37 62.82521 -25.68173 32460 ft 362 kts 52°
2026-04-24 13:37 62.84141 -25.63957 32009 ft 361 kts 52°
2026-04-24 13:38 62.85758 -25.59740 31557 ft 360 kts 52°
2026-04-24 13:38 62.87365 -25.55540 31107 ft 359 kts 51°
2026-04-24 13:38 62.88966 -25.51342 30657 ft 359 kts 51°
2026-04-24 13:38 62.90547 -25.47189 30212 ft 359 kts 51°
2026-04-24 13:39 62.92143 -25.42989 29762 ft 358 kts 51°
2026-04-24 13:39 62.93738 -25.38780 29312 ft 358 kts 51°
2026-04-24 13:39 62.95336 -25.34555 28860 ft 359 kts 51°
2026-04-24 13:39 62.96931 -25.30328 28409 ft 359 kts 51°
2026-04-24 13:40 62.98526 -25.26092 27958 ft 360 kts 51°
2026-04-24 13:40 63.00118 -25.21856 27509 ft 360 kts 51°
2026-04-24 13:40 63.01716 -25.17596 27058 ft 361 kts 51°
2026-04-24 13:40 63.03314 -25.13328 26608 ft 361 kts 51°
2026-04-24 13:41 63.04916 -25.09034 26149 ft 363 kts 51°
2026-04-24 13:41 63.06520 -25.04725 25693 ft 363 kts 51°
2026-04-24 13:41 63.08126 -25.00409 25242 ft 364 kts 51°
2026-04-24 13:41 63.09736 -24.96079 24791 ft 365 kts 51°
2026-04-24 13:42 63.11346 -24.91737 24341 ft 366 kts 51°
2026-04-24 13:42 63.12962 -24.87374 23890 ft 367 kts 51°
2026-04-24 13:42 63.14579 -24.82997 23440 ft 368 kts 51°
2026-04-24 13:42 63.16199 -24.78604 22989 ft 368 kts 51°
2026-04-24 13:43 63.17815 -24.74211 22539 ft 369 kts 51°
2026-04-24 13:43 63.19415 -24.69854 22094 ft 369 kts 51°
2026-04-24 13:43 63.21055 -24.65379 21637 ft 369 kts 51°
2026-04-24 13:43 63.22652 -24.61012 21193 ft 369 kts 51°
2026-04-24 13:44 63.24269 -24.56579 20742 ft 369 kts 51°
2026-04-24 13:44 63.25881 -24.52153 20280 ft 365 kts 51°
2026-04-24 13:44 63.27452 -24.47827 19827 ft 355 kts 51°
2026-04-24 13:44 63.28984 -24.43599 19375 ft 348 kts 51°
2026-04-24 13:45 63.30491 -24.39430 18924 ft 343 kts 51°
2026-04-24 13:45 63.31875 -24.35457 18495 ft 339 kts 52°
2026-04-24 13:45 63.33269 -24.31254 18045 ft 336 kts 53°
2026-04-24 13:45 63.34621 -24.27029 17595 ft 334 kts 54°
2026-04-24 13:46 63.35944 -24.22790 17144 ft 332 kts 55°
2026-04-24 13:46 63.37247 -24.18546 16694 ft 331 kts 55°
2026-04-24 13:46 63.38540 -24.14285 16242 ft 330 kts 55°
2026-04-24 13:46 63.39821 -24.10028 15791 ft 330 kts 55°
2026-04-24 13:47 63.41095 -24.05776 15341 ft 330 kts 56°
2026-04-24 13:47 63.42366 -24.01517 14890 ft 329 kts 55°
2026-04-24 13:47 63.43634 -23.97257 14440 ft 329 kts 55°
2026-04-24 13:47 63.44887 -23.93038 13995 ft 330 kts 55°
2026-04-24 13:48 63.46157 -23.88761 13544 ft 330 kts 55°
2026-04-24 13:48 63.47441 -23.84431 13088 ft 330 kts 55°
2026-04-24 13:48 63.48695 -23.80197 12644 ft 331 kts 55°
2026-04-24 13:48 63.49947 -23.75959 12193 ft 319 kts 55°
2026-04-24 13:49 63.51148 -23.71879 11742 ft 309 kts 55°
2026-04-24 13:49 63.52316 -23.67900 11290 ft 302 kts 55°
2026-04-24 13:49 63.53461 -23.63997 10839 ft 297 kts 55°
2026-04-24 13:49 63.54588 -23.60149 10389 ft 293 kts 55°
2026-04-24 13:50 63.55686 -23.56394 9938 ft 283 kts 55°
2026-04-24 13:50 63.56753 -23.52746 9488 ft 275 kts 55°
2026-04-24 13:50 63.57792 -23.49186 9038 ft 270 kts 55°
2026-04-24 13:50 63.58813 -23.45676 8587 ft 267 kts 55°
2026-04-24 13:51 63.59821 -23.42205 8137 ft 264 kts 55°
2026-04-24 13:51 63.60821 -23.38758 7686 ft 262 kts 55°
2026-04-24 13:51 63.61813 -23.35333 7235 ft 260 kts 55°
2026-04-24 13:51 63.62795 -23.31940 6786 ft 259 kts 55°
2026-04-24 13:52 63.63458 -23.29644 6481 ft 258 kts 55°
2026-04-24 13:52 63.64745 -23.25183 5885 ft 256 kts 55°
2026-04-24 13:52 63.65715 -23.21818 5434 ft 255 kts 55°
2026-04-24 13:52 63.66676 -23.18469 4983 ft 253 kts 56°
2026-04-24 13:53 63.67626 -23.15154 4533 ft 251 kts 56°
2026-04-24 13:53 63.68572 -23.11858 4083 ft 249 kts 56°
2026-04-24 13:53 63.69509 -23.08588 3713 ft 244 kts 56°
2026-04-24 13:53 63.70401 -23.05463 3617 ft 232 kts 56°
2026-04-24 13:54 63.71272 -23.02409 3525 ft 230 kts 56°
2026-04-24 13:54 63.72133 -22.99388 3492 ft 227 kts 56°
2026-04-24 13:54 63.72977 -22.96423 3486 ft 223 kts 56°
2026-04-24 13:54 63.73811 -22.93494 3486 ft 221 kts 56°
2026-04-24 13:55 63.74644 -22.90563 3487 ft 221 kts 56°
2026-04-24 13:55 63.75477 -22.87626 3487 ft 221 kts 56°
2026-04-24 13:55 63.76246 -22.84614 3312 ft 221 kts 60°
2026-04-24 13:55 63.76908 -22.81493 2961 ft 220 kts 64°
2026-04-24 13:56 63.77306 -22.79387 2729 ft 219 kts 66°
2026-04-24 13:56 63.77857 -22.76249 2618 ft 210 kts 67°
2026-04-24 13:56 63.78352 -22.73177 2540 ft 205 kts 69°
2026-04-24 13:56 63.78806 -22.70165 2497 ft 200 kts 69°
2026-04-24 13:57 63.79238 -22.67227 2487 ft 194 kts 69°
2026-04-24 13:57 63.80254 -22.64177 2494 ft 182 kts 32°
2026-04-24 13:57 63.80991 -22.63199 2491 ft 180 kts 26°
2026-04-24 13:57 63.82102 -22.61952 2488 ft 177 kts 24°
2026-04-24 13:58 63.83226 -22.60856 2487 ft 174 kts 16°
2026-04-24 13:58 63.84368 -22.60337 2482 ft 163 kts
2026-04-24 13:58 63.85481 -22.60294 2350 ft 156 kts 357°
2026-04-24 13:58 63.86550 -22.60427 2164 ft 151 kts 356°
2026-04-24 13:59 63.87527 -22.60526 1995 ft 136 kts 357°
2026-04-24 13:59 63.88416 -22.60555 1793 ft 121 kts 358°
2026-04-24 13:59 63.89242 -22.60545 1559 ft 117 kts 358°
2026-04-24 13:59 63.90049 -22.60499 1386 ft 116 kts 359°
2026-04-24 14:00 63.90853 -22.60522 1242 ft 115 kts 358°
2026-04-24 14:00 63.91651 -22.60527 1118 ft 114 kts 358°
2026-04-24 14:00 63.92461 -22.60492 931 ft 118 kts 357°
2026-04-24 14:00 63.93271 -22.60533 819 ft 115 kts 358°
2026-04-24 14:01 63.94077 -22.60504 650 ft 118 kts 357°
2026-04-24 14:01 63.94895 -22.60547 505 ft 117 kts 358°
2026-04-24 14:01 63.95706 -22.60541 351 ft 113 kts 359°
2026-04-24 14:01 63.96487 -22.60542 218 ft 111 kts 356°
2026-04-24 14:02 63.97199 -22.60565 175 ft 90 kts 356°
2026-04-24 14:02 63.97514 -22.60557 175 ft 23 kts
2026-04-24 14:02 63.97670 -22.60554 175 ft 22 kts 359°
2026-04-24 14:02 63.97816 -22.60545 175 ft 21 kts
2026-04-24 14:03 63.97957 -22.60549 175 ft 20 kts
2026-04-24 14:03 63.98092 -22.60545 175 ft 19 kts 360°
2026-04-24 14:03 63.98223 -22.60547 175 ft 19 kts 360°
2026-04-24 14:03 63.98350 -22.60548 175 ft 18 kts 359°
2026-04-24 14:04 63.98477 -22.60550 175 ft 19 kts
2026-04-24 14:04 63.98607 -22.60544 175 ft 19 kts 359°
2026-04-24 14:04 63.98739 -22.60542 175 ft 19 kts 359°
2026-04-24 14:04 63.98874 -22.60546 175 ft 20 kts 358°
2026-04-24 14:05 63.99012 -22.60549 175 ft 20 kts
2026-04-24 14:05 63.99124 -22.60541 175 ft 10 kts
2026-04-24 14:05 63.99171 -22.60451 175 ft 10 kts 91°
2026-04-24 14:05 63.99172 -22.60277 175 ft 12 kts 88°
2026-04-24 14:06 63.99175 -22.60082 175 ft 13 kts 88°
2026-04-24 14:06 63.99132 -22.59903 175 ft 14 kts 135°
2026-04-24 14:06 63.99062 -22.59732 175 ft 15 kts 131°
2026-04-24 14:06 63.98988 -22.59541 175 ft 17 kts 131°
2026-04-24 14:07 63.98931 -22.59412 175 ft 12 kts 147°
2026-04-24 14:07 63.98855 -22.59319 175 ft 13 kts 152°
2026-04-24 14:07 63.98763 -22.59289 175 ft 14 kts 180°
2026-04-24 14:07 63.98658 -22.59290 175 ft 16 kts 180°
2026-04-24 14:08 63.98544 -22.59286 175 ft 17 kts 179°
2026-04-24 14:08 63.98449 -22.59280 175 ft 9 kts 177°
2026-04-24 14:08 63.98382 -22.59243 175 ft 11 kts 157°
2026-04-24 14:08 63.98308 -22.59173 175 ft 12 kts 159°
2026-04-24 14:09 63.98223 -22.59099 175 ft 14 kts 159°
2026-04-24 14:09 63.98151 -22.59029 175 ft 10 kts 153°
2026-04-24 14:09 63.98084 -22.58948 175 ft 12 kts 152°
2026-04-24 14:09 63.98016 -22.58908 175 ft 10 kts 190°
2026-04-24 14:10 63.97941 -22.58960 175 ft 12 kts 197°
2026-04-24 14:10 63.97857 -22.59016 175 ft 14 kts 198°
2026-04-24 14:10 63.97772 -22.59073 175 ft 9 kts 181°
2026-04-24 14:10 63.97734 -22.58945 175 ft 12 kts 117°
2026-04-24 14:11 63.97717 -22.58869 175 ft 0 kts 117°